Weather History for Baghdad, Iraq

Change the Weather History Date:

Thursday, February 14, 2013

  Actual Average Record
Temperature  
Mean Temperature 57 °F -  
Max Temperature 68 °F - - ()
Min Temperature 46 °F - - ()
Degree Days  
Heating Degree Days 8    
Growing Degree Days 7 (Base 50)    
Moisture  
Dew Point 43 °F    
Average Humidity 62    
Maximum Humidity 82    
Minimum Humidity 37    
Precipitation  
Precipitation 0.00 in - - ()
Sea Level Pressure  
Sea Level Pressure 30.16 in    
Wind  
Wind Speed 4 mph ()    
Max Wind Speed 9 mph    
Max Gust Speed 16 mph    
Visibility 5.9 miles    
Events      
T = Trace of Precipitation, MM = Missing Value Source: Averaged Metar Reports

Daily Weather History Graph

Daily Weather History Graph

Search for Another Location

Airport:

Trip Planner

Search our weather history database for the weather conditions in past years. The results will help you decide how hot, cold, wet, or windy it might be!

Date:

Astronomy

Feb. 14, 2013 Rise Set
Actual Time 6:47 AM AST 5:47 PM AST
Civil Twilight 6:22 AM AST 6:12 PM AST
Nautical Twilight 5:53 AM AST 6:41 PM AST
Astronomical Twilight 5:24 AM AST 7:10 PM AST
Moon 8:53 AM AST (2/14) 10:09 PM AST (2/14)
Length of Visible Light 11h 49m
Length of Day
10h 59m
Waxing Crescent, 18% of the Moon is Illuminated
Feb 14
Waxing Crescent
Feb 17
First Quarter
Feb 25
Full
Mar 5
Last Quarter
Mar 11
New

Hourly Weather History & Observations

Time (AST) Temp. Windchill Dew Point Humidity Pressure Visibility Wind Dir Wind Speed Gust Speed Precip Events Conditions
12:55 AM 51.8 °F - 42.8 °F 71% 30.20 in 6.2 mi WNW 4.6 mph - N/A   Clear
1:55 AM 51.8 °F - 42.8 °F 71% 30.21 in 6.2 mi NW 4.6 mph - N/A   Clear
2:55 AM 50.0 °F - 42.8 °F 76% 30.20 in 6.2 mi Variable 4.6 mph - N/A   Clear
3:55 AM 50.0 °F - 42.8 °F 76% 30.19 in 6.2 mi NNW 4.6 mph - N/A   Clear
4:55 AM 48.2 °F - 42.8 °F 82% 30.19 in 6.2 mi NW 3.5 mph - N/A   Partly Cloudy
5:55 AM 46.4 °F 44.3 °F 41.0 °F 81% 30.20 in 6.2 mi WNW 4.6 mph - N/A   Partly Cloudy
6:55 AM 46.4 °F 43.5 °F 41.0 °F 81% 30.19 in 6.2 mi NW 5.8 mph - N/A   Partly Cloudy
7:55 AM 50.0 °F - 42.8 °F 76% 30.19 in 5.6 mi Variable 5.8 mph - N/A   Haze
8:55 AM 53.6 °F - 44.6 °F 72% 30.19 in 5.6 mi Variable 4.6 mph - N/A   Haze
9:55 AM 59.0 °F - 44.6 °F 59% 30.20 in 5.6 mi NW 6.9 mph - N/A   Haze
10:55 AM 60.8 °F - 44.6 °F 55% 30.20 in 6.2 mi NW 9.2 mph - N/A   Mostly Cloudy
11:55 AM 62.6 °F - 42.8 °F 48% 30.17 in 6.2 mi NNW 6.9 mph - N/A   Mostly Cloudy
12:55 PM 68.0 °F - 41.0 °F 37% 30.15 in 6.2 mi Variable 5.8 mph - N/A   Scattered Clouds
1:55 PM 66.2 °F - 42.8 °F 43% 30.14 in 6.2 mi Variable 2.3 mph - N/A   Scattered Clouds
2:55 PM 66.2 °F - 41.0 °F 40% 30.13 in 6.2 mi NW 6.9 mph - N/A   Mostly Cloudy
3:55 PM 64.4 °F - 41.0 °F 42% 30.13 in 6.2 mi NNW 8.1 mph 16.1 mph N/A   Mostly Cloudy
4:55 PM 62.6 °F - 42.8 °F 48% 30.12 in 6.2 mi Variable 4.6 mph - N/A   Mostly Cloudy
5:55 PM 60.8 °F - 44.6 °F 55% 30.12 in 6.2 mi NW 3.5 mph - N/A   Mostly Cloudy
6:55 PM 59.0 °F - 44.6 °F 59% 30.13 in 6.2 mi WNW 1.2 mph - N/A   Mostly Cloudy
7:55 PM 57.2 °F - 42.8 °F 59% 30.12 in 6.2 mi Variable 1.2 mph - N/A   Mostly Cloudy
8:55 PM 57.2 °F - 42.8 °F 59% 30.12 in 5.0 mi Variable 1.2 mph - N/A   Haze
9:55 PM 57.2 °F - 42.8 °F 59% 30.09 in 5.0 mi NE 2.3 mph - N/A   Haze
10:55 PM 55.4 °F - 42.8 °F 63% 30.10 in 5.0 mi West 3.5 mph - N/A   Haze
11:55 PM 53.6 °F - 42.8 °F 67% 30.08 in 5.0 mi Calm Calm - N/A   Haze